Time,TemperatureF,DewpointF,PressureIn,WindDirection,WindDirectionDegrees,WindSpeedMPH,WindSpeedGustMPH,Humidity,HourlyPrecipIn,Conditions,Clouds,dailyrainin,SoftwareType,DateUTC
2013-05-27 00:01:00,45.9,42.3,30.17,West,261,0.0,2.0,87,0.00,,,0.02,meteohub,2013-05-27 04:01:00,
2013-05-27 00:06:00,46.0,42.4,30.17,West,270,0.0,3.0,87,0.00,,,0.00,meteohub,2013-05-27 04:06:00,
2013-05-27 00:11:00,46.0,42.4,30.17,West,274,0.0,3.0,87,0.00,,,0.00,meteohub,2013-05-27 04:11:00,
2013-05-27 00:16:00,46.0,42.4,30.17,SW,229,0.0,3.0,87,0.00,,,0.00,meteohub,2013-05-27 04:16:00,
2013-05-27 00:21:00,45.9,42.3,30.17,WSW,257,0.0,3.0,87,0.00,,,0.00,meteohub,2013-05-27 04:21:00,
2013-05-27 00:26:00,45.7,42.1,30.17,West,275,0.0,3.0,87,0.00,,,0.00,meteohub,2013-05-27 04:26:00,
2013-05-27 00:31:00,45.7,42.3,30.17,WNW,289,0.0,4.0,88,0.00,,,0.00,meteohub,2013-05-27 04:31:00,
2013-05-27 00:36:00,45.7,42.3,30.17,West,263,0.0,4.0,88,0.00,,,0.00,meteohub,2013-05-27 04:36:00,
2013-05-27 00:41:00,45.9,42.3,30.17,West,276,1.0,5.0,87,0.00,,,0.00,meteohub,2013-05-27 04:41:00,
2013-05-27 00:47:00,45.9,42.4,30.17,SW,231,1.0,5.0,88,0.00,,,0.00,meteohub,2013-05-27 04:47:00,
2013-05-27 00:52:00,45.9,42.4,30.17,WNW,296,0.0,5.0,88,0.00,,,0.00,meteohub,2013-05-27 04:52:00,
2013-05-27 00:57:00,45.9,42.4,30.17,West,274,1.0,3.0,88,0.00,,,0.00,meteohub,2013-05-27 04:57:00,
2013-05-27 01:02:00,45.7,42.3,30.17,West,274,0.0,3.0,88,0.00,,,0.00,meteohub,2013-05-27 05:02:00,
2013-05-27 01:07:00,45.7,42.3,30.17,WNW,284,0.0,3.0,88,0.00,,,0.00,meteohub,2013-05-27 05:07:00,
2013-05-27 01:12:00,45.5,42.1,30.17,WNW,286,1.0,3.0,88,0.00,,,0.00,meteohub,2013-05-27 05:12:00,
2013-05-27 01:17:00,45.3,41.9,30.17,West,271,2.0,3.0,88,0.00,,,0.00,meteohub,2013-05-27 05:17:00,
2013-05-27 01:22:00,45.3,42.3,30.17,West,267,0.0,3.0,89,0.00,,,0.00,meteohub,2013-05-27 05:22:00,
2013-05-27 01:27:00,45.1,42.1,30.17,WSW,242,0.0,3.0,89,0.00,,,0.00,meteohub,2013-05-27 05:27:00,
2013-05-27 01:32:00,44.8,42.1,30.17,WSW,240,0.0,3.0,90,0.00,,,0.00,meteohub,2013-05-27 05:32:00,
2013-05-27 01:37:00,44.4,41.7,30.17,SW,236,0.0,1.0,90,0.00,,,0.00,meteohub,2013-05-27 05:37:00,
2013-05-27 01:42:00,44.4,41.9,30.17,WSW,238,0.0,1.0,91,0.00,,,0.00,meteohub,2013-05-27 05:42:00,
2013-05-27 01:47:00,43.9,41.2,30.17,WSW,238,0.0,1.0,90,0.00,,,0.00,meteohub,2013-05-27 05:47:00,
2013-05-27 01:52:00,43.3,40.8,30.17,SSW,212,0.0,1.0,91,0.00,,,0.00,meteohub,2013-05-27 05:52:00,
2013-05-27 01:57:00,43.2,41.0,30.17,SW,236,0.0,0.0,92,0.00,,,0.00,meteohub,2013-05-27 05:57:00,
2013-05-27 02:02:00,43.0,41.2,30.17,WSW,249,0.0,0.0,93,0.00,,,0.00,meteohub,2013-05-27 06:02:00,
2013-05-27 02:07:00,43.0,41.4,30.17,WNW,282,0.0,1.0,94,0.00,,,0.00,meteohub,2013-05-27 06:07:00,
2013-05-27 02:12:00,43.2,41.5,30.17,West,274,1.0,1.0,94,0.00,,,0.00,meteohub,2013-05-27 06:12:00,
2013-05-27 02:17:00,43.3,41.7,30.17,WSW,256,0.0,1.0,94,0.00,,,0.00,meteohub,2013-05-27 06:17:00,
2013-05-27 02:22:00,43.5,41.9,30.16,WNW,283,0.0,2.0,94,0.00,,,0.00,meteohub,2013-05-27 06:22:00,
2013-05-27 02:27:00,43.9,41.9,30.16,WSW,255,0.0,2.0,93,0.00,,,0.00,meteohub,2013-05-27 06:27:00,
2013-05-27 02:32:00,43.9,41.9,30.16,WNW,290,2.0,2.0,93,0.00,,,0.00,meteohub,2013-05-27 06:32:00,
2013-05-27 02:37:00,44.1,41.9,30.16,WNW,285,1.0,3.0,92,0.00,,,0.00,meteohub,2013-05-27 06:37:00,
2013-05-27 02:42:00,44.2,42.1,30.16,WNW,297,2.0,4.0,92,0.00,,,0.00,meteohub,2013-05-27 06:42:00,
2013-05-27 02:47:00,44.2,41.7,30.17,WNW,284,3.0,4.0,91,0.00,,,0.00,meteohub,2013-05-27 06:47:00,
2013-05-27 02:52:00,44.4,41.9,30.17,WNW,284,3.0,4.0,91,0.00,,,0.00,meteohub,2013-05-27 06:52:00,
2013-05-27 02:57:00,44.6,42.1,30.16,WNW,288,3.0,6.0,91,0.00,,,0.00,meteohub,2013-05-27 06:57:00,
2013-05-27 03:02:00,44.8,42.1,30.16,West,266,3.0,6.0,90,0.00,,,0.00,meteohub,2013-05-27 07:02:00,
2013-05-27 03:07:00,45.0,42.3,30.16,WNW,284,4.0,6.0,90,0.00,,,0.00,meteohub,2013-05-27 07:07:00,
2013-05-27 03:12:00,45.1,42.4,30.16,WNW,293,5.0,6.0,90,0.00,,,0.00,meteohub,2013-05-27 07:12:00,
2013-05-27 03:17:00,45.3,42.3,30.17,WNW,300,3.0,6.0,89,0.00,,,0.00,meteohub,2013-05-27 07:17:00,
2013-05-27 03:22:00,45.7,42.6,30.17,West,280,2.0,6.0,89,0.00,,,0.00,meteohub,2013-05-27 07:22:00,
2013-05-27 03:27:00,45.9,42.8,30.17,West,281,1.0,7.0,89,0.00,,,0.00,meteohub,2013-05-27 07:27:00,
2013-05-27 03:32:00,46.0,43.0,30.17,WNW,284,4.0,7.0,89,0.00,,,0.00,meteohub,2013-05-27 07:32:00,
2013-05-27 03:37:00,46.0,43.0,30.17,WNW,285,6.0,7.0,89,0.00,,,0.00,meteohub,2013-05-27 07:37:00,
2013-05-27 03:42:00,46.0,43.0,30.17,West,269,3.0,7.0,89,0.00,,,0.00,meteohub,2013-05-27 07:42:00,
2013-05-27 03:47:00,46.0,43.0,30.17,West,277,7.0,7.0,89,0.00,,,0.00,meteohub,2013-05-27 07:47:00,
2013-05-27 03:52:00,46.2,43.5,30.17,WSW,255,6.0,8.0,90,0.00,,,0.00,meteohub,2013-05-27 07:52:00,
2013-05-27 03:57:00,46.6,43.9,30.17,West,260,4.0,9.0,90,0.00,,,0.00,meteohub,2013-05-27 07:57:00,
2013-05-27 04:02:00,46.6,43.9,30.16,WNW,295,6.0,9.0,90,0.00,,,0.00,meteohub,2013-05-27 08:02:00,
2013-05-27 04:07:00,46.6,43.9,30.16,WNW,299,3.0,9.0,90,0.00,,,0.00,meteohub,2013-05-27 08:07:00,
2013-05-27 04:12:00,46.8,44.1,30.16,West,269,3.0,9.0,90,0.00,,,0.00,meteohub,2013-05-27 08:12:00,
2013-05-27 04:17:00,46.8,44.1,30.17,WNW,300,4.0,8.0,90,0.00,,,0.00,meteohub,2013-05-27 08:17:00,
2013-05-27 04:22:00,46.9,43.9,30.17,West,280,2.0,9.0,89,0.00,,,0.00,meteohub,2013-05-27 08:22:00,
2013-05-27 04:27:00,46.9,43.9,30.17,WNW,290,2.0,9.0,89,0.00,,,0.00,meteohub,2013-05-27 08:27:00,
2013-05-27 04:32:00,47.1,43.7,30.17,West,267,5.0,9.0,88,0.00,,,0.00,meteohub,2013-05-27 08:32:00,
2013-05-27 04:37:00,47.1,43.5,30.17,WSW,257,5.0,9.0,87,0.00,,,0.00,meteohub,2013-05-27 08:37:00,
2013-05-27 04:42:00,47.1,43.2,30.17,West,277,4.0,11.0,86,0.00,,,0.00,meteohub,2013-05-27 08:42:00,
2013-05-27 04:47:00,46.9,43.0,30.17,WNW,288,6.0,12.0,86,0.00,,,0.00,meteohub,2013-05-27 08:47:00,
2013-05-27 04:52:00,47.1,42.8,30.17,West,281,3.0,12.0,85,0.00,,,0.00,meteohub,2013-05-27 08:52:00,
2013-05-27 04:57:00,46.9,42.6,30.17,WNW,293,0.0,12.0,85,0.00,,,0.00,meteohub,2013-05-27 08:57:00,
2013-05-27 05:02:00,46.8,42.8,30.17,WNW,284,2.0,12.0,86,0.00,,,0.00,meteohub,2013-05-27 09:02:00,
2013-05-27 05:07:00,46.8,42.8,30.17,WNW,302,2.0,10.0,86,0.00,,,0.00,meteohub,2013-05-27 09:07:00,
2013-05-27 05:12:00,46.6,42.6,30.17,WNW,283,3.0,10.0,86,0.00,,,0.00,meteohub,2013-05-27 09:12:00,
2013-05-27 05:17:00,46.2,42.3,30.17,West,278,5.0,9.0,86,0.00,,,0.00,meteohub,2013-05-27 09:17:00,
2013-05-27 05:22:00,46.2,42.3,30.17,West,270,0.0,9.0,86,0.00,,,0.00,meteohub,2013-05-27 09:22:00,
2013-05-27 05:27:00,46.0,42.1,30.17,WNW,285,1.0,7.0,86,0.00,,,0.00,meteohub,2013-05-27 09:27:00,
2013-05-27 05:32:00,46.0,42.4,30.17,WNW,295,4.0,7.0,87,0.00,,,0.00,meteohub,2013-05-27 09:32:00,
2013-05-27 05:37:00,46.0,42.1,30.17,WNW,284,5.0,7.0,86,0.00,,,0.00,meteohub,2013-05-27 09:37:00,
2013-05-27 05:42:00,46.2,42.3,30.17,WNW,300,5.0,7.0,86,0.00,,,0.00,meteohub,2013-05-27 09:42:00,
2013-05-27 05:47:00,46.2,41.9,30.17,WNW,292,2.0,8.0,85,0.00,,,0.00,meteohub,2013-05-27 09:47:00,
2013-05-27 05:52:00,46.6,42.3,30.17,WNW,290,3.0,8.0,85,0.00,,,0.00,meteohub,2013-05-27 09:52:00,
2013-05-27 05:57:00,46.8,42.3,30.17,WNW,297,5.0,8.0,84,0.00,,,0.00,meteohub,2013-05-27 09:57:00,
2013-05-27 06:02:00,46.9,42.1,30.17,WNW,297,3.0,8.0,83,0.00,,,0.00,meteohub,2013-05-27 10:02:00,
2013-05-27 06:07:00,47.1,41.9,30.18,NW,311,4.0,6.0,82,0.00,,,0.00,meteohub,2013-05-27 10:07:00,
2013-05-27 06:12:00,47.3,42.1,30.18,WNW,302,3.0,6.0,82,0.00,,,0.00,meteohub,2013-05-27 10:12:00,
2013-05-27 06:17:00,47.5,41.9,30.18,NW,308,4.0,7.0,81,0.00,,,0.00,meteohub,2013-05-27 10:17:00,
2013-05-27 06:22:00,47.7,41.7,30.18,WNW,291,3.0,7.0,80,0.00,,,0.00,meteohub,2013-05-27 10:22:00,
2013-05-27 06:27:00,48.0,41.5,30.18,WNW,298,4.0,9.0,78,0.00,,,0.00,meteohub,2013-05-27 10:27:00,
2013-05-27 06:32:00,48.2,41.4,30.18,WNW,295,9.0,9.0,77,0.00,,,0.00,meteohub,2013-05-27 10:32:00,
2013-05-27 06:37:00,48.6,41.7,30.18,NW,304,8.0,11.0,77,0.00,,,0.00,meteohub,2013-05-27 10:37:00,
2013-05-27 06:41:00,48.7,41.5,30.18,WNW,284,4.0,11.0,76,0.00,,,0.00,meteohub,2013-05-27 10:41:00,
2013-05-27 06:46:00,48.9,41.7,30.19,NNW,330,5.0,11.0,76,0.00,,,0.00,meteohub,2013-05-27 10:46:00,
2013-05-27 06:52:00,49.1,41.5,30.19,WNW,297,5.0,11.0,75,0.00,,,0.00,meteohub,2013-05-27 10:52:00,
2013-05-27 06:57:00,49.3,41.7,30.19,WSW,249,3.0,10.0,75,0.00,,,0.00,meteohub,2013-05-27 10:57:00,
2013-05-27 07:02:00,49.5,41.9,30.19,WNW,302,4.0,10.0,75,0.00,,,0.00,meteohub,2013-05-27 11:02:00,
2013-05-27 07:07:00,49.8,41.9,30.19,NW,310,5.0,10.0,74,0.00,,,0.00,meteohub,2013-05-27 11:07:00,
2013-05-27 07:12:00,50.2,42.3,30.19,NW,318,4.0,10.0,74,0.00,,,0.00,meteohub,2013-05-27 11:12:00,
2013-05-27 07:17:00,50.5,42.3,30.19,WNW,302,5.0,11.0,73,0.00,,,0.00,meteohub,2013-05-27 11:17:00,
2013-05-27 07:22:00,50.9,42.6,30.19,NW,307,3.0,11.0,73,0.00,,,0.00,meteohub,2013-05-27 11:22:00,
2013-05-27 07:27:00,51.4,42.8,30.19,WNW,288,2.0,10.0,72,0.00,,,0.00,meteohub,2013-05-27 11:27:00,
2013-05-27 07:32:00,52.0,42.4,30.19,West,278,3.0,10.0,70,0.00,,,0.00,meteohub,2013-05-27 11:32:00,
2013-05-27 07:37:00,52.3,42.4,30.19,NW,307,2.0,9.0,69,0.00,,,0.00,meteohub,2013-05-27 11:37:00,
2013-05-27 07:42:00,52.5,42.3,30.19,WNW,298,6.0,9.0,68,0.00,,,0.00,meteohub,2013-05-27 11:42:00,
2013-05-27 07:47:00,52.9,42.6,30.19,WSW,242,4.0,13.0,68,0.00,,,0.00,meteohub,2013-05-27 11:47:00,
2013-05-27 07:52:00,53.4,42.8,30.19,WNW,291,10.0,15.0,67,0.00,,,0.00,meteohub,2013-05-27 11:52:00,
2013-05-27 07:57:00,53.8,43.2,30.19,WNW,285,6.0,15.0,67,0.00,,,0.00,meteohub,2013-05-27 11:57:00,
2013-05-27 08:02:00,54.1,42.6,30.19,SW,236,3.0,15.0,65,0.00,,,0.00,meteohub,2013-05-27 12:02:00,
2013-05-27 08:07:00,54.5,42.6,30.19,NW,312,4.0,11.0,64,0.00,,,0.00,meteohub,2013-05-27 12:07:00,
2013-05-27 08:12:00,54.9,43.3,30.19,WNW,284,5.0,11.0,65,0.00,,,0.00,meteohub,2013-05-27 12:12:00,
2013-05-27 08:17:00,55.2,43.7,30.19,WNW,296,3.0,10.0,65,0.00,,,0.00,meteohub,2013-05-27 12:17:00,
2013-05-27 08:22:00,55.6,44.1,30.19,WNW,291,4.0,11.0,65,0.00,,,0.00,meteohub,2013-05-27 12:22:00,
2013-05-27 08:27:00,55.6,42.8,30.19,NW,307,7.0,12.0,62,0.00,,,0.00,meteohub,2013-05-27 12:27:00,
2013-05-27 08:32:00,55.9,43.5,30.19,WNW,302,0.0,12.0,63,0.00,,,0.00,meteohub,2013-05-27 12:32:00,
2013-05-27 08:37:00,56.3,43.9,30.19,NW,323,7.0,14.0,63,0.00,,,0.00,meteohub,2013-05-27 12:37:00,
2013-05-27 08:42:00,56.7,43.7,30.19,North,8,0.0,14.0,62,0.00,,,0.00,meteohub,2013-05-27 12:42:00,
2013-05-27 08:47:00,57.4,44.1,30.19,NW,325,6.0,14.0,61,0.00,,,0.00,meteohub,2013-05-27 12:47:00,
2013-05-27 08:52:00,57.9,44.1,30.20,WNW,283,5.0,14.0,60,0.00,,,0.00,meteohub,2013-05-27 12:52:00,
2013-05-27 08:57:00,57.9,43.2,30.20,WNW,295,4.0,17.0,58,0.00,,,0.00,meteohub,2013-05-27 12:57:00,
2013-05-27 09:02:00,58.3,42.6,30.20,NW,312,12.0,20.0,56,0.00,,,0.00,meteohub,2013-05-27 13:02:00,
2013-05-27 09:07:00,58.5,42.8,30.19,NW,321,9.0,20.0,56,0.00,,,0.00,meteohub,2013-05-27 13:07:00,
2013-05-27 09:12:00,59.0,43.3,30.19,NW,324,8.0,16.0,56,0.00,,,0.00,meteohub,2013-05-27 13:12:00,
2013-05-27 09:17:00,59.4,42.8,30.19,NW,313,8.0,15.0,54,0.00,,,0.00,meteohub,2013-05-27 13:17:00,
2013-05-27 09:22:00,59.7,42.1,30.19,WNW,301,12.0,16.0,52,0.00,,,0.00,meteohub,2013-05-27 13:22:00,
2013-05-27 09:27:00,60.3,42.6,30.19,West,274,8.0,16.0,52,0.00,,,0.00,meteohub,2013-05-27 13:27:00,
2013-05-27 09:32:00,60.4,42.3,30.19,NW,307,9.0,17.0,51,0.00,,,0.00,meteohub,2013-05-27 13:32:00,
2013-05-27 09:37:00,61.0,41.7,30.19,NW,311,7.0,17.0,49,0.00,,,0.00,meteohub,2013-05-27 13:37:00,
2013-05-27 09:42:00,61.5,43.2,30.19,West,269,8.0,16.0,51,0.00,,,0.00,meteohub,2013-05-27 13:42:00,
2013-05-27 09:47:00,61.5,41.2,30.19,WNW,288,9.0,18.0,47,0.00,,,0.00,meteohub,2013-05-27 13:47:00,
2013-05-27 09:52:00,61.9,41.4,30.19,NW,317,11.0,18.0,47,0.00,,,0.00,meteohub,2013-05-27 13:52:00,
2013-05-27 09:57:00,62.2,42.3,30.19,NW,314,10.0,18.0,48,0.00,,,0.00,meteohub,2013-05-27 13:57:00,
2013-05-27 10:02:00,62.8,41.7,30.19,NW,305,10.0,17.0,46,0.00,,,0.00,meteohub,2013-05-27 14:02:00,
2013-05-27 10:07:00,63.0,41.9,30.19,West,281,7.0,19.0,46,0.00,,,0.00,meteohub,2013-05-27 14:07:00,
2013-05-27 10:12:00,63.0,41.4,30.19,WNW,293,5.0,19.0,45,0.00,,,0.00,meteohub,2013-05-27 14:12:00,
2013-05-27 10:17:00,63.1,41.5,30.19,West,264,4.0,19.0,45,0.00,,,0.00,meteohub,2013-05-27 14:17:00,
2013-05-27 10:22:00,63.7,42.4,30.18,NW,317,9.0,15.0,46,0.00,,,0.00,meteohub,2013-05-27 14:22:00,
2013-05-27 10:27:00,64.0,41.2,30.18,NW,314,2.0,15.0,43,0.00,,,0.00,meteohub,2013-05-27 14:27:00,
2013-05-27 10:32:00,64.6,42.3,30.18,WNW,294,7.0,14.0,44,0.00,,,0.00,meteohub,2013-05-27 14:32:00,
2013-05-27 10:37:00,64.8,40.5,30.18,WNW,285,9.0,14.0,41,0.00,,,0.00,meteohub,2013-05-27 14:37:00,
2013-05-27 10:42:00,64.6,42.3,30.18,NW,312,4.0,17.0,44,0.00,,,0.00,meteohub,2013-05-27 14:42:00,
2013-05-27 10:47:00,64.8,39.2,30.18,NNW,328,8.0,17.0,39,0.00,,,0.00,meteohub,2013-05-27 14:47:00,
2013-05-27 10:52:00,65.3,39.0,30.17,WNW,302,17.0,17.0,38,0.00,,,0.00,meteohub,2013-05-27 14:52:00,
2013-05-27 10:57:00,65.5,37.8,30.18,North,349,11.0,20.0,36,0.00,,,0.00,meteohub,2013-05-27 14:57:00,
2013-05-27 11:02:00,65.5,37.8,30.17,WNW,302,13.0,20.0,36,0.00,,,0.00,meteohub,2013-05-27 15:02:00,
2013-05-27 11:07:00,65.5,37.8,30.18,NNW,328,13.0,20.0,36,0.00,,,0.00,meteohub,2013-05-27 15:07:00,
2013-05-27 11:12:00,65.8,38.1,30.17,WNW,302,10.0,19.0,36,0.00,,,0.00,meteohub,2013-05-27 15:12:00,
2013-05-27 11:17:00,66.4,38.7,30.17,WNW,298,9.0,16.0,36,0.00,,,0.00,meteohub,2013-05-27 15:17:00,
2013-05-27 11:22:00,66.6,37.4,30.17,NW,309,12.0,20.0,34,0.00,,,0.00,meteohub,2013-05-27 15:22:00,
2013-05-27 11:27:00,66.4,37.2,30.17,NW,323,9.0,21.0,34,0.00,,,0.00,meteohub,2013-05-27 15:27:00,
2013-05-27 11:32:00,66.4,37.2,30.17,NW,321,10.0,22.0,34,0.00,,,0.00,meteohub,2013-05-27 15:32:00,
2013-05-27 11:37:00,66.6,38.1,30.17,SW,214,3.0,22.0,35,0.00,,,0.00,meteohub,2013-05-27 15:37:00,
2013-05-27 11:42:00,66.7,36.7,30.17,West,275,5.0,22.0,33,0.00,,,0.00,meteohub,2013-05-27 15:42:00,
2013-05-27 11:47:00,66.9,38.3,30.17,WNW,298,10.0,18.0,35,0.00,,,0.00,meteohub,2013-05-27 15:47:00,
2013-05-27 11:52:00,67.3,37.2,30.17,WNW,293,13.0,18.0,33,0.00,,,0.00,meteohub,2013-05-27 15:52:00,
2013-05-27 11:57:00,67.6,37.6,30.17,WNW,303,8.0,18.0,33,0.00,,,0.00,meteohub,2013-05-27 15:57:00,
2013-05-27 12:02:00,67.8,37.6,30.16,NW,307,6.0,18.0,33,0.00,,,0.00,meteohub,2013-05-27 16:02:00,
2013-05-27 12:07:00,67.6,35.1,30.16,West,281,7.0,22.0,30,0.00,,,0.00,meteohub,2013-05-27 16:07:00,
2013-05-27 12:12:00,67.6,36.0,30.16,WNW,302,7.0,22.0,31,0.00,,,0.00,meteohub,2013-05-27 16:12:00,
2013-05-27 12:17:00,67.6,37.6,30.16,NNW,327,7.0,22.0,33,0.00,,,0.00,meteohub,2013-05-27 16:17:00,
2013-05-27 12:22:00,67.6,36.7,30.16,South,169,1.0,22.0,32,0.00,,,0.00,meteohub,2013-05-27 16:22:00,
2013-05-27 12:27:00,68.2,37.2,30.16,WNW,293,11.0,18.0,32,0.00,,,0.00,meteohub,2013-05-27 16:27:00,
2013-05-27 12:32:00,68.0,37.0,30.15,WNW,284,8.0,19.0,32,0.00,,,0.00,meteohub,2013-05-27 16:32:00,
2013-05-27 12:37:00,68.0,36.3,30.16,WNW,291,15.0,22.0,31,0.00,,,0.00,meteohub,2013-05-27 16:37:00,
2013-05-27 12:42:00,67.6,36.7,30.15,West,274,3.0,23.0,32,0.00,,,0.00,meteohub,2013-05-27 16:42:00,
2013-05-27 12:47:00,68.0,37.0,30.15,NW,305,8.0,23.0,32,0.00,,,0.00,meteohub,2013-05-27 16:47:00,
2013-05-27 12:52:00,68.4,37.4,30.15,WSW,238,3.0,21.0,32,0.00,,,0.00,meteohub,2013-05-27 16:52:00,
2013-05-27 12:57:00,68.4,36.5,30.15,NW,307,11.0,20.0,31,0.00,,,0.00,meteohub,2013-05-27 16:57:00,
2013-05-27 13:02:00,68.2,36.3,30.14,WNW,302,1.0,19.0,31,0.00,,,0.00,meteohub,2013-05-27 17:02:00,
2013-05-27 13:07:00,68.2,36.3,30.14,WNW,288,13.0,19.0,31,0.00,,,0.00,meteohub,2013-05-27 17:07:00,
2013-05-27 13:12:00,68.4,37.4,30.14,WNW,302,4.0,19.0,32,0.00,,,0.00,meteohub,2013-05-27 17:12:00,
2013-05-27 13:17:00,68.7,39.9,30.14,SW,215,6.0,17.0,35,0.00,,,0.00,meteohub,2013-05-27 17:17:00,
2013-05-27 13:22:00,67.3,46.4,30.14,SW,224,15.0,18.0,47,0.00,,,0.00,meteohub,2013-05-27 17:22:00,
2013-05-27 13:27:00,66.6,45.1,30.14,SW,226,12.0,19.0,46,0.00,,,0.00,meteohub,2013-05-27 17:27:00,
2013-05-27 13:32:00,66.6,45.7,30.14,West,260,10.0,19.0,47,0.00,,,0.00,meteohub,2013-05-27 17:32:00,
2013-05-27 13:37:00,66.6,45.7,30.14,SW,224,10.0,19.0,47,0.00,,,0.00,meteohub,2013-05-27 17:37:00,
2013-05-27 13:42:00,66.6,45.1,30.13,SW,219,11.0,20.0,46,0.00,,,0.00,meteohub,2013-05-27 17:42:00,
2013-05-27 13:47:00,65.8,45.0,30.13,SSW,210,13.0,21.0,47,0.00,,,0.00,meteohub,2013-05-27 17:47:00,
2013-05-27 13:52:00,66.2,44.2,30.13,SW,217,7.0,23.0,45,0.00,,,0.00,meteohub,2013-05-27 17:52:00,
2013-05-27 13:57:00,66.0,44.1,30.13,SW,217,11.0,23.0,45,0.00,,,0.00,meteohub,2013-05-27 17:57:00,
2013-05-27 14:02:00,66.0,44.6,30.13,SSW,212,11.0,23.0,46,0.00,,,0.00,meteohub,2013-05-27 18:02:00,
2013-05-27 14:07:00,66.2,43.0,30.13,SW,221,6.0,22.0,43,0.00,,,0.00,meteohub,2013-05-27 18:07:00,
2013-05-27 14:12:00,66.0,45.1,30.13,WSW,257,12.0,22.0,47,0.00,,,0.00,meteohub,2013-05-27 18:12:00,
2013-05-27 14:17:00,66.0,44.1,30.13,South,191,17.0,22.0,45,0.00,,,0.00,meteohub,2013-05-27 18:17:00,
2013-05-27 14:22:00,65.8,44.4,30.13,West,271,7.0,22.0,46,0.00,,,0.00,meteohub,2013-05-27 18:22:00,
2013-05-27 14:27:00,66.0,43.5,30.13,WSW,248,20.0,22.0,44,0.00,,,0.00,meteohub,2013-05-27 18:27:00,
2013-05-27 14:32:00,65.8,44.4,30.13,SW,222,19.0,23.0,46,0.00,,,0.00,meteohub,2013-05-27 18:32:00,
2013-05-27 14:37:00,65.1,47.1,30.12,SSW,203,15.0,23.0,52,0.00,,,0.00,meteohub,2013-05-27 18:37:00,
2013-05-27 14:42:00,65.5,43.0,30.12,SW,226,11.0,23.0,44,0.00,,,0.00,meteohub,2013-05-27 18:42:00,
2013-05-27 14:47:00,66.0,43.5,30.12,SW,232,13.0,25.0,44,0.00,,,0.00,meteohub,2013-05-27 18:47:00,
2013-05-27 14:52:00,65.8,44.4,30.12,SSW,207,14.0,25.0,46,0.00,,,0.00,meteohub,2013-05-27 18:52:00,
2013-05-27 14:57:00,65.5,45.3,30.12,SSW,204,16.0,23.0,48,0.00,,,0.00,meteohub,2013-05-27 18:57:00,
2013-05-27 15:02:00,65.1,45.5,30.12,SSW,204,22.0,23.0,49,0.00,,,0.00,meteohub,2013-05-27 19:02:00,
2013-05-27 15:07:00,65.1,46.0,30.12,SSW,194,18.0,26.0,50,0.00,,,0.00,meteohub,2013-05-27 19:07:00,
2013-05-27 15:12:00,63.9,49.3,30.12,South,185,13.0,26.0,59,0.00,,,0.00,meteohub,2013-05-27 19:12:00,
2013-05-27 15:17:00,63.1,49.8,30.12,SSW,193,17.0,26.0,62,0.00,,,0.00,meteohub,2013-05-27 19:17:00,
2013-05-27 15:22:00,64.0,47.1,30.12,SSW,203,15.0,22.0,54,0.00,,,0.00,meteohub,2013-05-27 19:22:00,
2013-05-27 15:27:00,63.3,49.3,30.12,South,174,14.0,27.0,60,0.00,,,0.00,meteohub,2013-05-27 19:27:00,
2013-05-27 15:32:00,62.4,49.6,30.12,South,190,16.0,27.0,63,0.00,,,0.00,meteohub,2013-05-27 19:32:00,
2013-05-27 15:37:00,62.2,48.6,30.12,SSW,193,15.0,27.0,61,0.00,,,0.00,meteohub,2013-05-27 19:37:00,
2013-05-27 15:42:00,62.4,49.6,30.12,SSW,201,15.0,20.0,63,0.00,,,0.00,meteohub,2013-05-27 19:42:00,
2013-05-27 15:47:00,62.4,49.3,30.12,SSW,204,12.0,20.0,62,0.00,,,0.00,meteohub,2013-05-27 19:47:00,
2013-05-27 15:52:00,62.4,47.5,30.12,SW,222,12.0,20.0,58,0.00,,,0.00,meteohub,2013-05-27 19:52:00,
2013-05-27 15:57:00,62.8,48.2,30.12,WSW,237,14.0,24.0,59,0.00,,,0.00,meteohub,2013-05-27 19:57:00,
2013-05-27 16:02:00,63.0,46.9,30.12,SSW,211,10.0,24.0,56,0.00,,,0.00,meteohub,2013-05-27 20:02:00,
2013-05-27 16:07:00,63.0,46.9,30.12,SSW,210,14.0,23.0,56,0.00,,,0.00,meteohub,2013-05-27 20:07:00,
2013-05-27 16:12:00,63.0,47.5,30.12,SW,230,13.0,23.0,57,0.00,,,0.00,meteohub,2013-05-27 20:12:00,
2013-05-27 16:17:00,62.8,47.8,30.12,SW,228,13.0,22.0,58,0.00,,,0.00,meteohub,2013-05-27 20:17:00,
2013-05-27 16:22:00,63.0,46.0,30.12,SSW,207,22.0,22.0,54,0.00,,,0.00,meteohub,2013-05-27 20:22:00,
2013-05-27 16:27:00,63.5,46.0,30.12,South,183,12.0,24.0,53,0.00,,,0.00,meteohub,2013-05-27 20:27:00,
2013-05-27 16:32:00,63.3,46.4,30.12,SSW,201,18.0,25.0,54,0.00,,,0.00,meteohub,2013-05-27 20:32:00,
2013-05-27 16:37:00,63.1,45.7,30.12,SW,230,16.0,25.0,53,0.00,,,0.00,meteohub,2013-05-27 20:37:00,
2013-05-27 16:42:00,63.1,45.7,30.12,SW,225,11.0,27.0,53,0.00,,,0.00,meteohub,2013-05-27 20:42:00,
2013-05-27 16:47:00,63.3,45.9,30.12,SSW,200,16.0,27.0,53,0.00,,,0.00,meteohub,2013-05-27 20:47:00,
2013-05-27 16:52:00,63.1,45.7,30.12,WSW,239,17.0,23.0,53,0.00,,,0.00,meteohub,2013-05-27 20:52:00,
2013-05-27 16:57:00,63.1,45.7,30.12,SW,232,11.0,23.0,53,0.00,,,0.00,meteohub,2013-05-27 20:57:00,
2013-05-27 17:02:00,63.3,45.9,30.12,SW,221,17.0,23.0,53,0.00,,,0.00,meteohub,2013-05-27 21:02:00,
2013-05-27 17:07:00,63.1,45.7,30.12,West,264,11.0,23.0,53,0.00,,,0.00,meteohub,2013-05-27 21:07:00,
2013-05-27 17:12:00,63.1,46.2,30.12,SSW,207,12.0,20.0,54,0.00,,,0.00,meteohub,2013-05-27 21:12:00,
2013-05-27 17:17:00,63.1,46.8,30.12,SSW,207,7.0,20.0,55,0.00,,,0.00,meteohub,2013-05-27 21:17:00,
2013-05-27 17:22:00,62.8,45.9,30.12,SW,218,12.0,20.0,54,0.00,,,0.00,meteohub,2013-05-27 21:22:00,
2013-05-27 17:27:00,62.6,45.7,30.12,WSW,246,12.0,20.0,54,0.00,,,0.00,meteohub,2013-05-27 21:27:00,
2013-05-27 17:32:00,62.6,45.7,30.12,SW,221,7.0,20.0,54,0.00,,,0.00,meteohub,2013-05-27 21:32:00,
2013-05-27 17:37:00,62.6,44.8,30.12,SW,214,9.0,19.0,52,0.00,,,0.00,meteohub,2013-05-27 21:37:00,
2013-05-27 17:42:00,62.4,45.5,30.12,SW,220,11.0,21.0,54,0.00,,,0.00,meteohub,2013-05-27 21:42:00,
2013-05-27 17:47:00,62.6,46.8,30.12,SSW,203,9.0,21.0,56,0.00,,,0.00,meteohub,2013-05-27 21:47:00,
2013-05-27 17:52:00,62.2,45.3,30.12,SW,221,12.0,21.0,54,0.00,,,0.00,meteohub,2013-05-27 21:52:00,
2013-05-27 17:57:00,62.1,45.7,30.12,SW,215,12.0,21.0,55,0.00,,,0.00,meteohub,2013-05-27 21:57:00,
2013-05-27 18:02:00,61.9,46.4,30.12,SSW,200,8.0,21.0,57,0.00,,,0.00,meteohub,2013-05-27 22:02:00,
2013-05-27 18:07:00,61.7,46.4,30.12,SW,226,10.0,21.0,57,0.00,,,0.00,meteohub,2013-05-27 22:07:00,
2013-05-27 18:12:00,61.9,46.0,30.12,WSW,255,13.0,18.0,56,0.00,,,0.00,meteohub,2013-05-27 22:12:00,
2013-05-27 18:17:00,61.7,45.9,30.13,WSW,249,8.0,18.0,56,0.00,,,0.00,meteohub,2013-05-27 22:17:00,
2013-05-27 18:22:00,61.9,46.9,30.13,SW,231,8.0,17.0,58,0.00,,,0.00,meteohub,2013-05-27 22:22:00,
2013-05-27 18:27:00,61.7,46.8,30.13,SSW,211,5.0,16.0,58,0.00,,,0.00,meteohub,2013-05-27 22:27:00,
2013-05-27 18:32:00,61.9,46.9,30.13,SSW,211,6.0,15.0,58,0.00,,,0.00,meteohub,2013-05-27 22:32:00,
2013-05-27 18:37:00,62.1,46.2,30.13,SW,233,2.0,15.0,56,0.00,,,0.00,meteohub,2013-05-27 22:37:00,
2013-05-27 18:42:00,62.1,45.7,30.13,SW,222,10.0,16.0,55,0.00,,,0.00,meteohub,2013-05-27 22:42:00,
2013-05-27 18:47:00,61.9,45.5,30.13,WSW,244,13.0,16.0,55,0.00,,,0.00,meteohub,2013-05-27 22:47:00,
2013-05-27 18:52:00,61.7,45.9,30.13,SW,221,13.0,17.0,56,0.00,,,0.00,meteohub,2013-05-27 22:52:00,
2013-05-27 18:57:00,61.5,46.2,30.14,SW,219,6.0,17.0,57,0.00,,,0.00,meteohub,2013-05-27 22:57:00,
2013-05-27 19:02:00,61.3,46.9,30.14,SW,218,7.0,16.0,59,0.00,,,0.00,meteohub,2013-05-27 23:02:00,
2013-05-27 19:07:00,61.2,46.8,30.14,WSW,249,6.0,14.0,59,0.00,,,0.00,meteohub,2013-05-27 23:07:00,
2013-05-27 19:12:00,60.8,46.8,30.14,SW,228,9.0,13.0,60,0.00,,,0.00,meteohub,2013-05-27 23:12:00,
2013-05-27 19:17:00,60.6,47.1,30.14,SW,226,9.0,12.0,61,0.00,,,0.00,meteohub,2013-05-27 23:17:00,
2013-05-27 19:22:00,60.4,47.3,30.14,SW,222,5.0,12.0,62,0.00,,,0.00,meteohub,2013-05-27 23:22:00,
2013-05-27 19:27:00,60.3,48.0,30.14,SW,219,9.0,11.0,64,0.00,,,0.00,meteohub,2013-05-27 23:27:00,
2013-05-27 19:32:00,60.1,48.2,30.14,SSW,204,3.0,10.0,65,0.00,,,0.00,meteohub,2013-05-27 23:32:00,
2013-05-27 19:37:00,59.7,48.0,30.14,SSW,203,2.0,10.0,65,0.00,,,0.00,meteohub,2013-05-27 23:37:00,
2013-05-27 19:42:00,59.5,47.8,30.15,SW,214,8.0,10.0,65,0.00,,,0.00,meteohub,2013-05-27 23:42:00,
2013-05-27 19:47:00,59.2,48.6,30.15,SSW,208,6.0,8.0,68,0.00,,,0.00,meteohub,2013-05-27 23:47:00,
2013-05-27 19:52:00,59.0,48.4,30.15,SSW,200,5.0,8.0,68,0.00,,,0.00,meteohub,2013-05-27 23:52:00,
2013-05-27 19:57:00,58.6,48.2,30.15,SSW,203,3.0,8.0,68,0.00,,,0.00,meteohub,2013-05-27 23:57:00,
2013-05-27 20:02:00,58.5,48.0,30.15,South,172,4.0,7.0,68,0.00,,,0.00,meteohub,2013-05-28 00:02:00,
2013-05-27 20:07:00,58.3,47.8,30.15,South,179,5.0,7.0,68,0.00,,,0.00,meteohub,2013-05-28 00:07:00,
2013-05-27 20:12:00,58.1,48.0,30.15,SSW,200,5.0,7.0,69,0.00,,,0.00,meteohub,2013-05-28 00:12:00,
2013-05-27 20:17:00,57.9,47.8,30.15,SSW,212,4.0,7.0,69,0.00,,,0.00,meteohub,2013-05-28 00:17:00,
2013-05-27 20:22:00,57.7,47.7,30.15,SW,225,4.0,7.0,69,0.00,,,0.00,meteohub,2013-05-28 00:22:00,
2013-05-27 20:27:00,57.6,47.5,30.15,SSW,201,2.0,7.0,69,0.00,,,0.00,meteohub,2013-05-28 00:27:00,
2013-05-27 20:32:00,57.4,47.7,30.15,WSW,252,0.0,7.0,70,0.00,,,0.00,meteohub,2013-05-28 00:32:00,
2013-05-27 20:37:00,57.0,46.9,30.16,SW,226,2.0,5.0,69,0.00,,,0.00,meteohub,2013-05-28 00:37:00,
2013-05-27 20:42:00,57.0,47.3,30.16,SSW,210,2.0,5.0,70,0.00,,,0.00,meteohub,2013-05-28 00:42:00,
2013-05-27 20:47:00,56.8,47.5,30.16,SW,219,2.0,4.0,71,0.00,,,0.00,meteohub,2013-05-28 00:47:00,
2013-05-27 20:52:00,56.8,47.8,30.16,SW,217,0.0,4.0,72,0.00,,,0.00,meteohub,2013-05-28 00:52:00,
2013-05-27 20:56:00,56.7,46.2,30.16,SW,225,1.0,4.0,68,0.00,,,0.00,meteohub,2013-05-28 00:56:00,
2013-05-27 21:02:00,56.5,46.4,30.16,SW,221,1.0,4.0,69,0.00,,,0.00,meteohub,2013-05-28 01:02:00,
2013-05-27 21:07:00,56.5,47.1,30.17,SW,229,1.0,3.0,71,0.00,,,0.00,meteohub,2013-05-28 01:07:00,
2013-05-27 21:12:00,56.3,46.9,30.17,SW,222,0.0,2.0,71,0.00,,,0.00,meteohub,2013-05-28 01:12:00,
2013-05-27 21:17:00,56.1,46.4,30.17,SW,228,2.0,2.0,70,0.00,,,0.00,meteohub,2013-05-28 01:17:00,
2013-05-27 21:22:00,55.9,47.8,30.17,SSW,211,1.0,2.0,74,0.00,,,0.00,meteohub,2013-05-28 01:22:00,
2013-05-27 21:27:00,55.6,47.5,30.17,SW,221,0.0,2.0,74,0.00,,,0.00,meteohub,2013-05-28 01:27:00,
2013-05-27 21:32:00,55.0,47.7,30.17,SSW,210,0.0,2.0,76,0.00,,,0.00,meteohub,2013-05-28 01:32:00,
2013-05-27 21:37:00,54.7,48.0,30.17,SSW,210,0.0,2.0,78,0.00,,,0.00,meteohub,2013-05-28 01:37:00,
2013-05-27 21:42:00,54.0,47.3,30.18,SSE,162,0.0,1.0,78,0.00,,,0.00,meteohub,2013-05-28 01:42:00,
2013-05-27 21:47:00,53.4,47.5,30.18,SSW,210,0.0,1.0,80,0.00,,,0.00,meteohub,2013-05-28 01:47:00,
2013-05-27 21:52:00,53.2,47.5,30.18,SW,214,0.0,1.0,81,0.00,,,0.00,meteohub,2013-05-28 01:52:00,
2013-05-27 21:57:00,53.1,48.0,30.18,SW,215,0.0,1.0,83,0.00,,,0.00,meteohub,2013-05-28 01:57:00,
2013-05-27 22:02:00,52.5,47.8,30.18,SW,231,0.0,1.0,84,0.00,,,0.00,meteohub,2013-05-28 02:02:00,
2013-05-27 22:07:00,52.3,47.3,30.18,WSW,242,0.0,1.0,83,0.00,,,0.00,meteohub,2013-05-28 02:07:00,
2013-05-27 22:12:00,52.2,46.8,30.18,WSW,239,0.0,1.0,82,0.00,,,0.00,meteohub,2013-05-28 02:12:00,
2013-05-27 22:17:00,52.0,46.6,30.18,WSW,239,0.0,1.0,82,0.00,,,0.00,meteohub,2013-05-28 02:17:00,
2013-05-27 22:22:00,51.8,47.7,30.18,SSW,203,0.0,1.0,86,0.00,,,0.00,meteohub,2013-05-28 02:22:00,
2013-05-27 22:27:00,51.4,47.7,30.18,South,190,0.0,1.0,87,0.00,,,0.00,meteohub,2013-05-28 02:27:00,
2013-05-27 22:32:00,51.1,47.7,30.19,South,187,0.0,1.0,88,0.00,,,0.00,meteohub,2013-05-28 02:32:00,
2013-05-27 22:37:00,50.9,47.8,30.19,South,187,0.0,0.0,89,0.00,,,0.00,meteohub,2013-05-28 02:37:00,
2013-05-27 22:42:00,50.7,47.8,30.19,WSW,240,0.0,0.0,90,0.00,,,0.00,meteohub,2013-05-28 02:42:00,
2013-05-27 22:47:00,50.7,47.3,30.19,West,262,0.0,1.0,88,0.00,,,0.00,meteohub,2013-05-28 02:47:00,
2013-05-27 22:52:00,50.7,47.3,30.19,West,260,0.0,1.0,88,0.00,,,0.00,meteohub,2013-05-28 02:52:00,
2013-05-27 22:57:00,50.7,47.3,30.19,South,187,0.0,1.0,88,0.00,,,0.00,meteohub,2013-05-28 02:57:00,
2013-05-27 23:02:00,50.2,47.1,30.19,South,187,0.0,0.0,89,0.00,,,0.00,meteohub,2013-05-28 03:02:00,
2013-05-27 23:07:00,49.8,46.9,30.19,South,188,0.0,0.0,90,0.00,,,0.00,meteohub,2013-05-28 03:07:00,
2013-05-27 23:12:00,49.6,47.1,30.19,WSW,255,0.0,0.0,91,0.00,,,0.00,meteohub,2013-05-28 03:12:00,
2013-05-27 23:17:00,49.6,47.1,30.19,WSW,255,0.0,1.0,91,0.00,,,0.00,meteohub,2013-05-28 03:17:00,
2013-05-27 23:22:00,49.6,47.1,30.19,WSW,253,0.0,1.0,91,0.00,,,0.00,meteohub,2013-05-28 03:22:00,
2013-05-27 23:27:00,49.5,46.9,30.19,WSW,253,0.0,0.0,91,0.00,,,0.00,meteohub,2013-05-28 03:27:00,
2013-05-27 23:32:00,49.5,47.3,30.19,WSW,252,0.0,0.0,92,0.00,,,0.00,meteohub,2013-05-28 03:32:00,
2013-05-27 23:37:00,49.3,47.1,30.19,WSW,253,0.0,0.0,92,0.00,,,0.00,meteohub,2013-05-28 03:37:00,
2013-05-27 23:42:00,49.1,47.1,30.19,WSW,253,0.0,0.0,93,0.00,,,0.00,meteohub,2013-05-28 03:42:00,
2013-05-27 23:47:00,49.1,47.1,30.19,WSW,255,0.0,0.0,93,0.00,,,0.00,meteohub,2013-05-28 03:47:00,
2013-05-27 23:52:00,49.1,47.1,30.19,WSW,255,0.0,0.0,93,0.00,,,0.00,meteohub,2013-05-28 03:52:00,
2013-05-27 23:57:00,48.9,46.9,30.19,ESE,123,0.0,0.0,93,0.00,,,0.00,meteohub,2013-05-28 03:57:00,